Year,Month,Day,Hour,Minute,Value (Times are PST for temperature in C)
2005,08,15,00,00,17.80
2005,08,15,00,01,17.80
2005,08,15,00,02,17.80
2005,08,15,00,03,17.80
2005,08,15,00,04,17.80
2005,08,15,00,05,17.80
2005,08,15,00,06,17.80
2005,08,15,00,07,17.80
2005,08,15,00,08,17.80
2005,08,15,00,09,17.70
2005,08,15,00,10,17.70
2005,08,15,00,11,17.70
2005,08,15,00,12,17.70
2005,08,15,00,14,17.70
2005,08,15,00,16,17.60
2005,08,15,00,18,17.60
2005,08,15,00,19,17.60
2005,08,15,00,22,17.50
2005,08,15,00,25,17.40
2005,08,15,00,26,17.30
2005,08,15,00,29,17.30
2005,08,15,00,30,17.30
2005,08,15,00,32,17.30
2005,08,15,00,36,17.30
2005,08,15,00,38,17.30
2005,08,15,00,39,17.30
2005,08,15,00,41,17.30
2005,08,15,00,44,17.30
2005,08,15,00,45,17.30
2005,08,15,00,46,17.30
2005,08,15,00,48,17.30
2005,08,15,00,49,17.30
2005,08,15,00,50,17.30
2005,08,15,00,51,17.30
2005,08,15,00,52,17.30
2005,08,15,00,53,17.30
2005,08,15,00,54,17.30
2005,08,15,00,55,17.30
2005,08,15,00,56,17.20
2005,08,15,00,59,17.20
2005,08,15,01,00,17.20
2005,08,15,01,04,17.10
2005,08,15,01,06,17.00
2005,08,15,01,07,17.00
2005,08,15,01,08,17.00
2005,08,15,01,09,17.00
2005,08,15,01,10,17.00
2005,08,15,01,11,17.00
2005,08,15,01,14,16.90
2005,08,15,01,15,16.90
2005,08,15,01,16,16.90
2005,08,15,01,17,16.90
2005,08,15,01,18,16.80
2005,08,15,01,19,16.80
2005,08,15,01,22,16.70
2005,08,15,01,25,16.70
2005,08,15,01,27,16.70
2005,08,15,01,28,16.70
2005,08,15,01,30,16.70
2005,08,15,01,31,16.70
2005,08,15,01,32,16.70
2005,08,15,01,35,16.60
2005,08,15,01,36,16.60
2005,08,15,01,37,16.60
2005,08,15,01,38,16.60
2005,08,15,01,43,16.60
2005,08,15,01,45,16.60
2005,08,15,01,50,16.60
2005,08,15,01,52,16.60
2005,08,15,01,54,16.60
2005,08,15,01,55,16.60
2005,08,15,01,56,16.60
2005,08,15,01,57,16.60
2005,08,15,01,58,16.60
2005,08,15,01,59,16.60
2005,08,15,02,00,16.50
2005,08,15,02,01,16.40
2005,08,15,02,02,16.40
2005,08,15,02,03,16.40
2005,08,15,02,04,16.40
2005,08,15,02,05,16.40
2005,08,15,02,06,16.40
2005,08,15,02,07,16.40
2005,08,15,02,08,16.40
2005,08,15,02,09,16.40
2005,08,15,02,10,16.40
2005,08,15,02,11,16.40
2005,08,15,02,12,16.40
2005,08,15,02,13,16.40
2005,08,15,02,14,16.40
2005,08,15,02,15,16.40
2005,08,15,02,16,16.40
2005,08,15,02,17,16.40
2005,08,15,02,18,16.40
2005,08,15,02,19,16.40
2005,08,15,02,20,16.40
2005,08,15,02,21,16.40
2005,08,15,02,22,16.40
2005,08,15,02,23,16.40
2005,08,15,02,24,16.40
2005,08,15,02,25,16.40
2005,08,15,02,26,16.40
2005,08,15,02,27,16.40
2005,08,15,02,28,16.40
2005,08,15,02,29,16.40
2005,08,15,02,30,16.40
2005,08,15,02,31,16.40
2005,08,15,02,32,16.40
2005,08,15,02,33,16.40
2005,08,15,02,34,16.40
2005,08,15,02,35,16.40
2005,08,15,02,36,16.40
2005,08,15,02,37,16.40
2005,08,15,02,38,16.40
2005,08,15,02,39,16.40
2005,08,15,02,40,16.40
2005,08,15,02,41,16.40
2005,08,15,02,42,16.40
2005,08,15,02,43,16.40
2005,08,15,02,44,16.40
2005,08,15,02,45,16.40
2005,08,15,02,46,16.40
2005,08,15,02,47,16.40
2005,08,15,02,48,16.40
2005,08,15,02,49,16.40
2005,08,15,02,50,16.40
2005,08,15,02,51,16.40
2005,08,15,02,52,16.40
2005,08,15,02,53,16.40
2005,08,15,02,54,16.40
2005,08,15,02,55,16.40
2005,08,15,02,56,16.30
2005,08,15,02,57,16.30
2005,08,15,02,58,16.30
2005,08,15,02,59,16.30
2005,08,15,03,00,16.30
2005,08,15,03,01,16.30
2005,08,15,03,02,16.30
2005,08,15,03,03,16.30
2005,08,15,03,04,16.20
2005,08,15,03,05,16.20
2005,08,15,03,06,16.20
2005,08,15,03,07,16.20
2005,08,15,03,08,16.20
2005,08,15,03,09,16.20
2005,08,15,03,10,16.10
2005,08,15,03,11,16.10
2005,08,15,03,12,16.10
2005,08,15,03,13,16.10
2005,08,15,03,14,16.10
2005,08,15,03,15,16.10
2005,08,15,03,16,16.10
2005,08,15,03,17,16.10
2005,08,15,03,18,16.10
2005,08,15,03,19,16.10
2005,08,15,03,20,16.10
2005,08,15,03,21,16.10
2005,08,15,03,22,16.10
2005,08,15,03,23,16.10
2005,08,15,03,24,16.10
2005,08,15,03,25,16.00
2005,08,15,03,26,15.90
2005,08,15,03,27,15.90
2005,08,15,03,28,15.90
2005,08,15,03,29,15.90
2005,08,15,03,30,15.90
2005,08,15,03,31,15.90
2005,08,15,03,32,15.90
2005,08,15,03,33,15.80
2005,08,15,03,34,15.80
2005,08,15,03,35,15.80
2005,08,15,03,36,15.80
2005,08,15,03,37,15.80
2005,08,15,03,38,15.80
2005,08,15,03,39,15.80
2005,08,15,03,40,15.80
2005,08,15,03,41,15.80
2005,08,15,03,42,15.80
2005,08,15,03,43,15.80
2005,08,15,03,44,15.80
2005,08,15,03,45,15.80
2005,08,15,03,46,15.80
2005,08,15,03,47,15.80
2005,08,15,03,48,15.80
2005,08,15,03,49,15.80
2005,08,15,03,50,15.80
2005,08,15,03,51,15.80
2005,08,15,03,52,15.80
2005,08,15,03,53,15.80
2005,08,15,03,54,15.90
2005,08,15,03,55,15.90
2005,08,15,03,56,15.90
2005,08,15,03,57,15.90
2005,08,15,03,58,15.90
2005,08,15,03,59,15.90
2005,08,15,04,00,15.80
2005,08,15,04,01,15.80
2005,08,15,04,02,15.80
2005,08,15,04,03,15.80
2005,08,15,04,04,15.80
2005,08,15,04,05,15.80
2005,08,15,04,06,15.80
2005,08,15,04,07,15.80
2005,08,15,04,08,15.80
2005,08,15,04,09,15.80
2005,08,15,04,10,15.80
2005,08,15,04,11,15.80
2005,08,15,04,12,15.80
2005,08,15,04,13,15.80
2005,08,15,04,14,15.80
2005,08,15,04,15,15.80
2005,08,15,04,16,15.80
2005,08,15,04,17,15.70
2005,08,15,04,18,15.70
2005,08,15,04,19,15.70
2005,08,15,04,20,15.70
2005,08,15,04,21,15.60
2005,08,15,04,22,15.60
2005,08,15,04,23,15.60
2005,08,15,04,24,15.60
2005,08,15,04,25,15.60
2005,08,15,04,26,15.60
2005,08,15,04,27,15.50
2005,08,15,04,28,15.50
2005,08,15,04,29,15.50
2005,08,15,04,30,15.50
2005,08,15,04,31,15.50
2005,08,15,04,32,15.50
2005,08,15,04,33,15.40
2005,08,15,04,34,15.40
2005,08,15,04,35,15.40
2005,08,15,04,36,15.40
2005,08,15,04,37,15.40
2005,08,15,04,38,15.40
2005,08,15,04,39,15.30
2005,08,15,04,40,15.30
2005,08,15,04,41,15.30
2005,08,15,04,42,15.30
2005,08,15,04,43,15.30
2005,08,15,04,44,15.30
2005,08,15,04,45,15.30
2005,08,15,04,46,15.30
2005,08,15,04,47,15.30
2005,08,15,04,48,15.30
2005,08,15,04,49,15.30
2005,08,15,04,50,15.30
2005,08,15,04,51,15.30
2005,08,15,04,52,15.30
2005,08,15,04,53,15.30
2005,08,15,04,54,15.30
2005,08,15,04,55,15.30
2005,08,15,04,56,15.30
2005,08,15,04,57,15.30
2005,08,15,04,58,15.20
2005,08,15,04,59,15.20
2005,08,15,05,00,15.20
2005,08,15,05,01,15.20
2005,08,15,05,02,15.20
2005,08,15,05,03,15.20
2005,08,15,05,04,15.10
2005,08,15,05,05,15.10
2005,08,15,05,06,15.10
2005,08,15,05,07,15.10
2005,08,15,05,08,15.10
2005,08,15,05,09,15.10
2005,08,15,05,10,15.10
2005,08,15,05,11,15.10
2005,08,15,05,12,15.10
2005,08,15,05,13,15.10
2005,08,15,05,14,15.10
2005,08,15,05,15,15.10
2005,08,15,05,16,15.10
2005,08,15,05,17,15.10
2005,08,15,05,18,15.10
2005,08,15,05,19,15.20
2005,08,15,05,20,15.20
2005,08,15,05,21,15.20
2005,08,15,05,22,15.20
2005,08,15,05,23,15.30
2005,08,15,05,24,15.30
2005,08,15,05,25,15.30
2005,08,15,05,26,15.30
2005,08,15,05,27,15.20
2005,08,15,05,28,15.20
2005,08,15,05,29,15.20
2005,08,15,05,30,15.20
2005,08,15,05,31,15.20
2005,08,15,05,32,15.20
2005,08,15,05,33,15.20
2005,08,15,05,34,15.20
2005,08,15,05,35,15.20
2005,08,15,05,36,15.20
2005,08,15,05,37,15.20
2005,08,15,05,38,15.30
2005,08,15,05,39,15.30
2005,08,15,05,40,15.30
2005,08,15,05,41,15.30
2005,08,15,05,42,15.30
2005,08,15,05,43,15.30
2005,08,15,05,44,15.30
2005,08,15,05,45,15.30
2005,08,15,05,46,15.30
2005,08,15,05,47,15.30
2005,08,15,05,48,15.30
2005,08,15,05,49,15.30
2005,08,15,05,50,15.30
2005,08,15,05,51,15.30
2005,08,15,05,52,15.30
2005,08,15,05,53,15.20
2005,08,15,05,54,15.20
2005,08,15,05,55,15.20
2005,08,15,05,56,15.20
2005,08,15,05,57,15.20
2005,08,15,05,58,15.20
2005,08,15,05,59,15.20
2005,08,15,06,00,15.20
2005,08,15,06,01,15.20
2005,08,15,06,02,15.20
2005,08,15,06,03,15.20
2005,08,15,06,04,15.20
2005,08,15,06,05,15.20
2005,08,15,06,06,15.20
2005,08,15,06,07,15.20
2005,08,15,06,08,15.20
2005,08,15,06,09,15.20
2005,08,15,06,10,15.20
2005,08,15,06,11,15.20
2005,08,15,06,12,15.20
2005,08,15,06,13,15.10
2005,08,15,06,14,15.10
2005,08,15,06,15,15.10
2005,08,15,06,16,15.00
2005,08,15,06,17,15.00
2005,08,15,06,18,15.00
2005,08,15,06,19,14.90
2005,08,15,06,20,14.90
2005,08,15,06,21,14.90
2005,08,15,06,22,14.90
2005,08,15,06,23,14.90
2005,08,15,06,24,14.90
2005,08,15,06,25,14.80
2005,08,15,06,26,14.80
2005,08,15,06,27,14.80
2005,08,15,06,28,14.80
2005,08,15,06,29,14.80
2005,08,15,06,30,14.80
2005,08,15,06,31,14.80
2005,08,15,06,32,14.80
2005,08,15,06,33,14.80
2005,08,15,06,34,14.80
2005,08,15,06,35,14.80
2005,08,15,06,36,14.90
2005,08,15,06,37,14.90
2005,08,15,06,38,14.90
2005,08,15,06,39,14.90
2005,08,15,06,40,15.00
2005,08,15,06,41,15.00
2005,08,15,06,42,15.10
2005,08,15,06,43,15.20
2005,08,15,06,44,15.20
2005,08,15,06,45,15.30
2005,08,15,06,46,15.30
2005,08,15,06,47,15.40
2005,08,15,06,48,15.40
2005,08,15,06,49,15.50
2005,08,15,06,50,15.50
2005,08,15,06,51,15.60
2005,08,15,06,52,15.60
2005,08,15,06,53,15.70
2005,08,15,06,54,15.80
2005,08,15,06,55,15.80
2005,08,15,06,56,15.80
2005,08,15,06,57,15.90
2005,08,15,06,58,15.90
2005,08,15,06,59,16.00
2005,08,15,07,00,16.10
2005,08,15,07,01,16.10
2005,08,15,07,02,16.20
2005,08,15,07,03,16.20
2005,08,15,07,04,16.30
2005,08,15,07,05,16.30
2005,08,15,07,06,16.40
2005,08,15,07,07,16.40
2005,08,15,07,08,16.40
2005,08,15,07,09,16.50
2005,08,15,07,10,16.60
2005,08,15,07,11,16.70
2005,08,15,07,12,16.70
2005,08,15,07,13,16.70
2005,08,15,07,14,16.70
2005,08,15,07,15,16.80
2005,08,15,07,16,16.80
2005,08,15,07,17,16.90
2005,08,15,07,18,16.90
2005,08,15,07,19,16.90
2005,08,15,07,20,17.00
2005,08,15,07,21,17.00
2005,08,15,07,22,17.10
2005,08,15,07,23,17.20
2005,08,15,07,24,17.30
2005,08,15,07,25,17.30
2005,08,15,07,26,17.30
2005,08,15,07,27,17.30
2005,08,15,07,28,17.20
2005,08,15,07,29,17.20
2005,08,15,07,30,17.10
2005,08,15,07,31,17.10
2005,08,15,07,32,17.00
2005,08,15,07,33,17.00
2005,08,15,07,34,17.00
2005,08,15,07,35,17.00
2005,08,15,07,36,17.00
2005,08,15,07,37,17.00
2005,08,15,07,38,17.00
2005,08,15,07,39,17.00
2005,08,15,07,40,17.00
2005,08,15,07,41,17.00
2005,08,15,07,42,17.00
2005,08,15,07,43,17.10
2005,08,15,07,44,17.10
2005,08,15,07,45,17.10
2005,08,15,07,46,17.10
2005,08,15,07,47,17.20
2005,08,15,07,48,17.20
2005,08,15,07,49,17.30
2005,08,15,07,50,17.30
2005,08,15,07,51,17.30
2005,08,15,07,52,17.30
2005,08,15,07,53,17.30
2005,08,15,07,54,17.40
2005,08,15,07,55,17.40
2005,08,15,07,56,17.40
2005,08,15,07,57,17.40
2005,08,15,07,58,17.50
2005,08,15,07,59,17.50
2005,08,15,08,00,17.50
2005,08,15,08,01,17.50
2005,08,15,08,02,17.50
2005,08,15,08,03,17.50
2005,08,15,08,04,17.50
2005,08,15,08,05,17.50
2005,08,15,08,06,17.60
2005,08,15,08,07,17.60
2005,08,15,08,08,17.60
2005,08,15,08,09,17.60
2005,08,15,08,10,17.70
2005,08,15,08,11,17.70
2005,08,15,08,12,17.80
2005,08,15,08,13,17.80
2005,08,15,08,14,17.90
2005,08,15,08,15,17.90
2005,08,15,08,16,17.90
2005,08,15,08,17,17.90
2005,08,15,08,18,17.90
2005,08,15,08,19,17.90
2005,08,15,08,20,17.90
2005,08,15,08,21,17.90
2005,08,15,08,22,17.90
2005,08,15,08,23,17.90
2005,08,15,08,24,17.90
2005,08,15,08,25,17.90
2005,08,15,08,26,18.00
2005,08,15,08,27,18.10
2005,08,15,08,28,18.20
2005,08,15,08,29,18.20
2005,08,15,08,30,18.40
2005,08,15,08,31,18.50
2005,08,15,08,32,18.60
2005,08,15,08,33,18.70
2005,08,15,08,34,18.80
2005,08,15,08,35,19.00
2005,08,15,08,36,19.10
2005,08,15,08,37,19.10
2005,08,15,08,38,19.30
2005,08,15,08,39,19.30
2005,08,15,08,40,19.40
2005,08,15,08,41,19.40
2005,08,15,08,42,19.50
2005,08,15,08,43,19.50
2005,08,15,08,44,19.50
2005,08,15,08,45,19.40
2005,08,15,08,46,19.40
2005,08,15,08,47,19.40
2005,08,15,08,48,19.50
2005,08,15,08,49,19.60
2005,08,15,08,50,19.60
2005,08,15,08,51,19.60
2005,08,15,08,52,19.60
2005,08,15,08,53,19.70
2005,08,15,08,54,19.80
2005,08,15,08,55,19.90
2005,08,15,08,56,19.90
2005,08,15,08,57,20.00
2005,08,15,08,58,20.10
2005,08,15,08,59,20.20
2005,08,15,09,00,20.20
2005,08,15,09,01,20.20
2005,08,15,09,02,20.20
2005,08,15,09,03,20.20
2005,08,15,09,04,20.20
2005,08,15,09,05,20.20
2005,08,15,09,06,20.20
2005,08,15,09,07,20.20
2005,08,15,09,08,20.20
2005,08,15,09,09,20.20
2005,08,15,09,10,20.20
2005,08,15,09,11,20.20
2005,08,15,09,12,20.20
2005,08,15,09,13,20.30
2005,08,15,09,14,20.50
2005,08,15,09,15,20.50
2005,08,15,09,16,20.50
2005,08,15,09,17,20.50
2005,08,15,09,18,20.50
2005,08,15,09,19,20.50
2005,08,15,09,20,20.50
2005,08,15,09,21,20.60
2005,08,15,09,22,20.60
2005,08,15,09,23,20.60
2005,08,15,09,24,20.70
2005,08,15,09,25,20.80
2005,08,15,09,26,20.80
2005,08,15,09,27,20.80
2005,08,15,09,28,20.80
2005,08,15,09,29,20.70
2005,08,15,09,30,20.70
2005,08,15,09,31,20.70
2005,08,15,09,32,20.70
2005,08,15,09,33,20.60
2005,08,15,09,34,20.60
2005,08,15,09,35,20.60
2005,08,15,09,36,20.60
2005,08,15,09,37,20.50
2005,08,15,09,38,20.50
2005,08,15,09,39,20.50
2005,08,15,09,40,20.50
2005,08,15,09,41,20.40
2005,08,15,09,42,20.40
2005,08,15,09,43,20.30
2005,08,15,09,44,20.30
2005,08,15,09,45,20.20
2005,08,15,09,47,20.20
2005,08,15,09,48,20.20
2005,08,15,09,49,20.20
2005,08,15,09,50,20.20
2005,08,15,09,51,20.20
2005,08,15,09,52,20.20
2005,08,15,09,53,20.20
2005,08,15,09,54,20.10
2005,08,15,09,55,20.10
2005,08,15,09,56,20.10
2005,08,15,09,57,20.10
2005,08,15,09,58,20.10
2005,08,15,10,00,20.20
2005,08,15,10,01,20.30
2005,08,15,10,02,20.40
2005,08,15,10,03,20.40
2005,08,15,10,04,20.50
2005,08,15,10,05,20.50
2005,08,15,10,06,20.50
2005,08,15,10,07,20.50
2005,08,15,10,08,20.40
2005,08,15,10,10,20.40
2005,08,15,10,11,20.30
2005,08,15,10,12,20.20
2005,08,15,10,13,20.20
2005,08,15,10,15,20.20
2005,08,15,10,16,20.30
2005,08,15,10,17,20.30
2005,08,15,10,18,20.40
2005,08,15,10,20,20.50
2005,08,15,10,21,20.70
2005,08,15,10,22,20.90
2005,08,15,10,24,21.10
2005,08,15,10,25,21.30
2005,08,15,10,27,21.30
2005,08,15,10,28,21.30
2005,08,15,10,29,21.30
2005,08,15,10,30,21.40
2005,08,15,10,31,21.60
2005,08,15,10,32,21.60
2005,08,15,10,33,21.60
2005,08,15,10,34,21.70
2005,08,15,10,36,21.90
2005,08,15,10,38,22.00
2005,08,15,10,39,22.10
2005,08,15,10,40,22.10
2005,08,15,10,41,22.20
2005,08,15,10,42,22.30
2005,08,15,10,45,22.30
2005,08,15,10,46,22.30
2005,08,15,10,48,22.20
2005,08,15,10,49,22.10
2005,08,15,10,50,22.00
2005,08,15,10,51,22.00
2005,08,15,10,52,21.90
2005,08,15,10,53,21.80
2005,08,15,10,54,21.70
2005,08,15,10,55,21.70
2005,08,15,10,57,21.80
2005,08,15,10,58,21.60
2005,08,15,10,59,21.40
2005,08,15,11,00,21.30
2005,08,15,11,01,21.30
2005,08,15,11,02,21.30
2005,08,15,11,04,21.40
2005,08,15,11,06,21.60
2005,08,15,11,07,21.70
2005,08,15,11,09,21.80
2005,08,15,11,11,21.80
2005,08,15,11,13,21.90
2005,08,15,11,14,21.90
2005,08,15,11,15,21.90
2005,08,15,11,16,21.90
2005,08,15,11,17,21.90
2005,08,15,11,19,22.00
2005,08,15,11,21,22.30
2005,08,15,11,23,22.40
2005,08,15,11,25,22.40
2005,08,15,11,26,22.30
2005,08,15,11,27,22.20
2005,08,15,11,29,22.00
2005,08,15,11,30,21.90
2005,08,15,11,31,21.80
2005,08,15,11,32,21.80
2005,08,15,11,33,21.80
2005,08,15,11,34,21.70
2005,08,15,11,35,21.70
2005,08,15,11,37,22.00
2005,08,15,11,38,22.30
2005,08,15,11,39,22.40
2005,08,15,11,40,22.60
2005,08,15,11,41,22.60
2005,08,15,11,43,22.80
2005,08,15,11,44,22.90
2005,08,15,11,45,22.90
2005,08,15,11,46,23.00
2005,08,15,11,47,23.20
2005,08,15,11,48,23.30
2005,08,15,11,49,23.60
2005,08,15,11,50,23.60
2005,08,15,11,51,23.70
2005,08,15,11,52,23.70
2005,08,15,11,53,23.70
2005,08,15,11,54,23.70
2005,08,15,11,55,23.70
2005,08,15,11,56,23.70
2005,08,15,11,57,23.70
2005,08,15,11,58,23.70
2005,08,15,11,59,23.70
2005,08,15,12,00,23.70
2005,08,15,12,01,23.70
2005,08,15,12,02,23.70
2005,08,15,12,03,23.60
2005,08,15,12,04,23.60
2005,08,15,12,05,23.50
2005,08,15,12,06,23.40
2005,08,15,12,07,23.30
2005,08,15,12,08,23.30
2005,08,15,12,09,23.10
2005,08,15,12,10,23.00
2005,08,15,12,11,23.10
2005,08,15,12,12,23.30
2005,08,15,12,13,23.50
2005,08,15,12,14,23.60
2005,08,15,12,15,23.70
2005,08,15,12,16,23.80
2005,08,15,12,17,23.80
2005,08,15,12,18,24.00
2005,08,15,12,19,24.10
2005,08,15,12,20,24.10
2005,08,15,12,21,23.90
2005,08,15,12,22,23.70
2005,08,15,12,23,23.70
2005,08,15,12,24,23.60
2005,08,15,12,25,23.40
2005,08,15,12,26,23.30
2005,08,15,12,27,23.30
2005,08,15,12,28,23.30
2005,08,15,12,29,23.30
2005,08,15,12,30,23.30
2005,08,15,12,31,23.10
2005,08,15,12,32,23.00
2005,08,15,12,33,23.00
2005,08,15,12,34,22.90
2005,08,15,12,35,22.80
2005,08,15,12,36,22.80
2005,08,15,12,37,22.50
2005,08,15,12,38,22.30
2005,08,15,12,39,22.30
2005,08,15,12,40,22.30
2005,08,15,12,41,22.40
2005,08,15,12,42,22.40
2005,08,15,12,43,22.50
2005,08,15,12,44,22.60
2005,08,15,12,45,22.80
2005,08,15,12,46,22.90
2005,08,15,12,47,23.10
2005,08,15,12,48,23.20
2005,08,15,12,49,23.30
2005,08,15,12,50,23.30
2005,08,15,12,51,23.30
2005,08,15,12,52,23.30
2005,08,15,12,53,23.10
2005,08,15,12,54,22.90
2005,08,15,12,55,22.80
2005,08,15,12,56,22.90
2005,08,15,12,57,23.00
2005,08,15,12,58,23.10
2005,08,15,12,59,23.20
2005,08,15,13,00,23.20
2005,08,15,13,01,23.10
2005,08,15,13,02,23.10
2005,08,15,13,03,23.10
2005,08,15,13,04,22.90
2005,08,15,13,05,22.90
2005,08,15,13,06,22.90
2005,08,15,13,07,22.80
2005,08,15,13,08,22.80
2005,08,15,13,09,22.90
2005,08,15,13,10,22.90
2005,08,15,13,11,22.90
2005,08,15,13,12,23.00
2005,08,15,13,13,23.10
2005,08,15,13,14,23.00
2005,08,15,13,15,22.90
2005,08,15,13,16,22.80
2005,08,15,13,17,22.60
2005,08,15,13,18,22.60
2005,08,15,13,19,22.70
2005,08,15,13,20,22.80
2005,08,15,13,21,22.90
2005,08,15,13,22,22.90
2005,08,15,13,23,22.90
2005,08,15,13,24,22.90
2005,08,15,13,25,22.90
2005,08,15,13,26,22.80
2005,08,15,13,27,22.70
2005,08,15,13,28,22.80
2005,08,15,13,29,22.90
2005,08,15,13,30,23.10
2005,08,15,13,31,23.10
2005,08,15,13,32,23.10
2005,08,15,13,33,22.90
2005,08,15,13,34,22.90
2005,08,15,13,35,22.90
2005,08,15,13,36,22.90
2005,08,15,13,37,23.10
2005,08,15,13,38,23.10
2005,08,15,13,39,23.20
2005,08,15,13,40,23.30
2005,08,15,13,41,23.30
2005,08,15,13,42,23.40
2005,08,15,13,43,23.40
2005,08,15,13,44,23.50
2005,08,15,13,45,23.60
2005,08,15,13,46,23.60
2005,08,15,13,47,23.50
2005,08,15,13,48,23.40
2005,08,15,13,49,23.30
2005,08,15,13,50,23.30
2005,08,15,13,51,23.30
2005,08,15,13,52,23.30
2005,08,15,13,53,23.20
2005,08,15,13,54,23.20
2005,08,15,13,55,23.10
2005,08,15,13,56,22.90
2005,08,15,13,57,22.90
2005,08,15,13,58,22.90
2005,08,15,13,59,22.90
2005,08,15,14,00,22.90
2005,08,15,14,01,22.80
2005,08,15,14,02,22.80
2005,08,15,14,03,22.60
2005,08,15,14,04,22.50
2005,08,15,14,05,22.60
2005,08,15,14,06,22.60
2005,08,15,14,07,22.60
2005,08,15,14,08,22.70
2005,08,15,14,09,22.70
2005,08,15,14,10,22.50
2005,08,15,14,11,22.50
2005,08,15,14,12,22.60
2005,08,15,14,13,22.70
2005,08,15,14,14,22.70
2005,08,15,14,15,22.70
2005,08,15,14,16,22.60
2005,08,15,14,17,22.70
2005,08,15,14,18,22.80
2005,08,15,14,19,22.60
2005,08,15,14,20,22.40
2005,08,15,14,21,22.40
2005,08,15,14,22,22.50
2005,08,15,14,23,22.40
2005,08,15,14,24,22.30
2005,08,15,14,25,22.20
2005,08,15,14,26,22.10
2005,08,15,14,27,22.00
2005,08,15,14,28,22.00
2005,08,15,14,29,22.10
2005,08,15,14,30,22.10
2005,08,15,14,31,22.30
2005,08,15,14,32,22.40
2005,08,15,14,33,22.50
2005,08,15,14,34,22.40
2005,08,15,14,35,22.30
2005,08,15,14,36,22.20
2005,08,15,14,37,22.20
2005,08,15,14,38,22.10
2005,08,15,14,39,22.00
2005,08,15,14,40,22.00
2005,08,15,14,41,22.00
2005,08,15,14,42,22.00
2005,08,15,14,43,21.90
2005,08,15,14,44,22.00
2005,08,15,14,45,22.10
2005,08,15,14,46,22.00
2005,08,15,14,47,22.00
2005,08,15,14,48,22.10
2005,08,15,14,49,22.30
2005,08,15,14,50,22.30
2005,08,15,14,51,22.30
2005,08,15,14,52,22.40
2005,08,15,14,53,22.50
2005,08,15,14,54,22.60
2005,08,15,14,55,22.60
2005,08,15,14,56,22.60
2005,08,15,14,57,22.60
2005,08,15,14,58,22.60
2005,08,15,14,59,22.70
2005,08,15,15,00,22.80
2005,08,15,15,01,22.90
2005,08,15,15,02,22.90
2005,08,15,15,03,22.90
2005,08,15,15,04,23.10
2005,08,15,15,05,23.20
2005,08,15,15,06,23.30
2005,08,15,15,07,23.40
2005,08,15,15,08,23.50
2005,08,15,15,09,23.60
2005,08,15,15,10,23.60
2005,08,15,15,11,23.70
2005,08,15,15,12,23.80
2005,08,15,15,13,24.10
2005,08,15,15,14,24.20
2005,08,15,15,15,24.30
2005,08,15,15,16,24.30
2005,08,15,15,17,24.30
2005,08,15,15,18,24.30
2005,08,15,15,19,24.20
2005,08,15,15,20,24.00
2005,08,15,15,21,23.90
2005,08,15,15,22,24.00
2005,08,15,15,23,24.10
2005,08,15,15,24,24.20
2005,08,15,15,25,24.20
2005,08,15,15,26,24.30
2005,08,15,15,27,24.40
2005,08,15,15,28,24.50
2005,08,15,15,29,24.50
2005,08,15,15,30,24.60
2005,08,15,15,31,24.70
2005,08,15,15,32,24.80
2005,08,15,15,33,24.80
2005,08,15,15,34,24.80
2005,08,15,15,35,24.90
2005,08,15,15,36,24.90
2005,08,15,15,37,24.80
2005,08,15,15,38,24.80
2005,08,15,15,39,24.80
2005,08,15,15,40,24.80
2005,08,15,15,41,24.70
2005,08,15,15,42,24.70
2005,08,15,15,43,24.60
2005,08,15,15,44,24.60
2005,08,15,15,45,24.60
2005,08,15,15,46,24.60
2005,08,15,15,47,24.70
2005,08,15,15,48,24.70
2005,08,15,15,49,24.70
2005,08,15,15,50,24.80
2005,08,15,15,51,24.90
2005,08,15,15,52,25.00
2005,08,15,15,53,25.00
2005,08,15,15,54,25.00
2005,08,15,15,55,25.00
2005,08,15,15,56,25.00
2005,08,15,15,57,24.90
2005,08,15,15,58,24.90
2005,08,15,15,59,24.90
2005,08,15,16,00,24.80
2005,08,15,16,01,24.70
2005,08,15,16,02,24.80
2005,08,15,16,03,24.80
2005,08,15,16,04,24.70
2005,08,15,16,05,24.60
2005,08,15,16,06,24.60
2005,08,15,16,07,24.60
2005,08,15,16,08,24.60
2005,08,15,16,09,24.70
2005,08,15,16,10,24.60
2005,08,15,16,11,24.60
2005,08,15,16,12,24.60
2005,08,15,16,13,24.60
2005,08,15,16,14,24.60
2005,08,15,16,15,24.70
2005,08,15,16,16,24.70
2005,08,15,16,17,24.80
2005,08,15,16,18,24.70
2005,08,15,16,19,24.60
2005,08,15,16,20,24.50
2005,08,15,16,21,24.60
2005,08,15,16,22,24.60
2005,08,15,16,23,24.70
2005,08,15,16,24,24.70
2005,08,15,16,25,24.70
2005,08,15,16,26,24.70
2005,08,15,16,27,24.60
2005,08,15,16,28,24.70
2005,08,15,16,29,24.80
2005,08,15,16,30,24.90
2005,08,15,16,31,25.00
2005,08,15,16,32,24.90
2005,08,15,16,33,24.80
2005,08,15,16,34,24.80
2005,08,15,16,35,24.60
2005,08,15,16,36,24.50
2005,08,15,16,37,24.50
2005,08,15,16,38,24.40
2005,08,15,16,39,24.30
2005,08,15,16,40,24.30
2005,08,15,16,41,24.30
2005,08,15,16,42,24.30
2005,08,15,16,43,24.20
2005,08,15,16,44,24.20
2005,08,15,16,45,24.30
2005,08,15,16,46,24.40
2005,08,15,16,47,24.50
2005,08,15,16,48,24.40
2005,08,15,16,49,24.40
2005,08,15,16,50,24.40
2005,08,15,16,51,24.40
2005,08,15,16,52,24.40
2005,08,15,16,53,24.40
2005,08,15,16,54,24.50
2005,08,15,16,55,24.50
2005,08,15,16,56,24.50
2005,08,15,16,57,24.50
2005,08,15,16,58,24.50
2005,08,15,16,59,24.70
2005,08,15,17,00,24.70
2005,08,15,17,01,24.70
2005,08,15,17,02,24.70
2005,08,15,17,03,24.80
2005,08,15,17,04,24.90
2005,08,15,17,05,25.00
2005,08,15,17,06,25.20
2005,08,15,17,07,25.40
2005,08,15,17,08,25.50
2005,08,15,17,09,25.60
2005,08,15,17,10,25.60
2005,08,15,17,11,25.60
2005,08,15,17,12,25.70
2005,08,15,17,13,25.70
2005,08,15,17,14,25.90
2005,08,15,17,15,26.00
2005,08,15,17,16,26.10
2005,08,15,17,17,26.30
2005,08,15,17,18,26.30
2005,08,15,17,19,26.40
2005,08,15,17,20,26.40
2005,08,15,17,21,26.40
2005,08,15,17,22,26.60
2005,08,15,17,23,26.60
2005,08,15,17,24,26.70
2005,08,15,17,25,26.80
2005,08,15,17,26,26.80
2005,08,15,17,27,26.90
2005,08,15,17,28,26.90
2005,08,15,17,29,26.80
2005,08,15,17,30,26.80
2005,08,15,17,31,26.60
2005,08,15,17,32,26.60
2005,08,15,17,33,26.60
2005,08,15,17,34,26.50
2005,08,15,17,35,26.40
2005,08,15,17,36,26.40
2005,08,15,17,37,26.30
2005,08,15,17,38,26.30
2005,08,15,17,39,26.30
2005,08,15,17,40,26.30
2005,08,15,17,41,26.30
2005,08,15,17,42,26.30
2005,08,15,17,43,26.40
2005,08,15,17,44,26.40
2005,08,15,17,45,26.40
2005,08,15,17,46,26.40
2005,08,15,17,47,26.50
2005,08,15,17,48,26.50
2005,08,15,17,49,26.40
2005,08,15,17,50,26.40
2005,08,15,17,51,26.40
2005,08,15,17,52,26.50
2005,08,15,17,53,26.60
2005,08,15,17,54,26.60
2005,08,15,17,55,26.60
2005,08,15,17,56,26.60
2005,08,15,17,57,26.60
2005,08,15,17,58,26.40
2005,08,15,17,59,26.40
2005,08,15,18,00,26.30
2005,08,15,18,01,26.30
2005,08,15,18,02,26.30
2005,08,15,18,03,26.30
2005,08,15,18,04,26.30
2005,08,15,18,05,26.30
2005,08,15,18,06,26.40
2005,08,15,18,07,26.40
2005,08,15,18,08,26.40
2005,08,15,18,09,26.40
2005,08,15,18,10,26.40
2005,08,15,18,11,26.30
2005,08,15,18,12,26.30
2005,08,15,18,13,26.30
2005,08,15,18,14,26.30
2005,08,15,18,15,26.30
2005,08,15,18,16,26.30
2005,08,15,18,17,26.20
2005,08,15,18,18,26.30
2005,08,15,18,19,26.30
2005,08,15,18,20,26.30
2005,08,15,18,21,26.30
2005,08,15,18,22,26.30
2005,08,15,18,23,26.30
2005,08,15,18,24,26.30
2005,08,15,18,25,26.30
2005,08,15,18,26,26.40
2005,08,15,18,27,26.40
2005,08,15,18,28,26.40
2005,08,15,18,29,26.50